Weather History for MRLB - November, 2014

Change the Weather History Date:

Thursday, November 27, 2014

  Actual Average Record
Temperature  
Mean Temperature 82 °F -  
Max Temperature 88 °F 87 °F 93 °F (2000)
Min Temperature 77 °F 72 °F 68 °F (2005)
Cooling Degree Days 18    
Growing Degree Days 32 (Base 50)    
Moisture  
Dew Point 69 °F    
Average Humidity 62    
Maximum Humidity 74    
Minimum Humidity 52    
Precipitation  
Precipitation 0.00 in - - ()
Sea Level Pressure  
Sea Level Pressure 29.84 in    
Wind  
Wind Speed 10 mph ()    
Max Wind Speed 18 mph    
Max Gust Speed 31 mph    
Visibility 7.7 miles    
Events      
Averages and records for this station are not official NWS values.
T = Trace of Precipitation, MM = Missing Value Source: Averaged Metar Reports

Daily Weather History Graph

Daily Weather History Graph

Search for Another Location

Airport or City:

Trip Planner

Search our weather history database for the weather conditions in past years. The results will help you decide how hot, cold, wet, or windy it might be!

Date:

Astronomy

Nov. 27, 2014 Rise Set
Actual Time 5:42 AM CST 5:16 PM CST
Civil Twilight 5:20 AM CST 5:39 PM CST
Nautical Twilight 4:54 AM CST 6:05 PM CST
Astronomical Twilight 4:28 AM CST 6:31 PM CST
Moon 10:20 AM CST (11/27) 10:28 PM CST (11/27)
Length of Visible Light 12h 19m
Length of Day
11h 34m
Waxing Crescent, 31% of the Moon is Illuminated
Nov 27
Waxing Crescent
Nov 29
First Quarter
Dec 6
Full
Dec 14
Last Quarter
Dec 21
New

Hourly Weather History & Observations

Time (CST) Temp. Heat Index Dew Point Humidity Pressure Visibility Wind Dir Wind Speed Gust Speed Precip Events Conditions
6:00 AM 78 °F - 69 °F 67% 29.88 in 12 mi East 9.2 mph - -   Mostly Cloudy
6:00 AM 78.8 °F - 69.8 °F 74% 29.86 in 6.2 mi East 9.2 mph - N/A   Scattered Clouds
7:00 AM 78.8 °F - 68.0 °F 69% 29.88 in 6.2 mi East 12.7 mph - N/A   Mostly Cloudy
8:00 AM 80.6 °F 83.2 °F 68.0 °F 65% 29.87 in 6.2 mi East 2.3 mph - N/A   Mostly Cloudy
9:00 AM 82 °F - 67 °F 52% 29.91 in 12 mi East 9.2 mph - -   Overcast
9:00 AM 82.4 °F 85.4 °F 68.0 °F 62% 29.87 in 6.2 mi East 9.2 mph - N/A   Mostly Cloudy
10:00 AM 84.2 °F 87.3 °F 68.0 °F 58% 29.86 in 6.2 mi East 18.4 mph 31.1 mph N/A   Mostly Cloudy
11:00 AM 84.2 °F 88.4 °F 69.8 °F 62% 29.85 in 6.2 mi East 15.0 mph - N/A   Mostly Cloudy
12:00 PM 85 °F - 70 °F 52% 29.86 in 12 mi East 17.3 mph - -   Overcast
12:00 PM 84.2 °F 88.4 °F 69.8 °F 62% 29.82 in 6.2 mi East 17.3 mph - N/A   Mostly Cloudy
1:00 PM 86.0 °F 90.4 °F 69.8 °F 58% 29.81 in 6.2 mi ENE 15.0 mph - N/A   Mostly Cloudy
2:00 PM 86.0 °F 90.4 °F 69.8 °F 58% 29.78 in 6.2 mi ENE 15.0 mph - N/A   Mostly Cloudy
3:00 PM 85 °F - 70 °F 52% 29.81 in 12 mi ENE 12.7 mph - -   Overcast
3:00 PM 84.2 °F 88.4 °F 69.8 °F 62% 29.78 in 6.2 mi ENE 12.7 mph - N/A   Scattered Clouds
4:00 PM 82.4 °F 86.3 °F 69.8 °F 66% 29.79 in 6.2 mi East 10.4 mph - N/A   Scattered Clouds
5:00 PM 80.6 °F 83.9 °F 69.8 °F 70% 29.80 in 6.2 mi East 10.4 mph - N/A   Scattered Clouds
6:00 PM 80 °F - 68 °F 60% 29.85 in 12 mi ENE 12.7 mph - -   Scattered Clouds
6:00 PM 80.6 °F 83.2 °F 68.0 °F 65% 29.82 in 6.2 mi ENE 12.7 mph - N/A   Scattered Clouds
7:00 PM 80.6 °F 83.2 °F 68.0 °F 65% 29.84 in 6.2 mi ENE 18.4 mph - N/A   Scattered Clouds
8:00 PM 80.6 °F 83.2 °F 68.0 °F 65% 29.85 in 6.2 mi East 16.1 mph - N/A   Scattered Clouds